| time (UTC) | temp C | wind direction | speed KPH | gust KPH | rain 1hr cm | rain 24hr cm | rain mn cm | humidity % | barometer mb |
| 20260504081526 | 10 | 195 | 14.5 | 24.1 | 0.00 | 0.00 | 0.00 | 70 | 1007.8 |
| 20260504050021 | 10 | 188 | 16.1 | 27.4 | 0.00 | 0.00 | 0.00 | 63 | 1010.0 |
| 20260504044522 | 10 | 192 | 16.1 | 24.1 | 0.00 | 0.00 | 0.00 | 63 | 1010.1 |
| 20260504043013 | 11 | 186 | 16.1 | 22.5 | 0.00 | 0.00 | 0.00 | 62 | 1010.2 |
| 20260504041509 | 10 | 188 | 16.1 | 24.1 | 0.00 | 0.00 | 0.00 | 63 | 1010.3 |
| 20260504040008 | 10 | 187 | 14.5 | 25.7 | 0.00 | 0.00 | 0.00 | 65 | 1010.4 |
| 20260504034506 | 10 | 175 | 17.7 | 27.4 | 0.00 | 0.00 | 0.00 | 66 | 1010.6 |
| 20260504033024 | 10 | 173 | 17.7 | 27.4 | 0.00 | 0.00 | 0.00 | 68 | 1010.7 |
| 20260504031522 | 10 | 171 | 16.1 | 19.3 | 0.00 | 0.00 | 0.00 | 70 | 1010.7 |
| 20260504030036 | 9 | 171 | 14.5 | 19.3 | 0.00 | 0.00 | 0.00 | 72 | 1010.9 |
| 20260504024517 | 9 | 171 | 16.1 | 22.5 | 0.00 | 0.00 | 0.00 | 72 | 1011.0 |
| 20260504023010 | 9 | 192 | 12.9 | 22.5 | 0.00 | 0.00 | 0.00 | 72 | 1011.1 |
| 20260504021509 | 9 | 162 | 16.1 | 27.4 | 0.00 | 0.00 | 0.00 | 71 | 1011.2 |
| 20260504020025 | 9 | 172 | 12.9 | 19.3 | 0.00 | 0.00 | 0.00 | 74 | 1011.3 |
| 20260504014534 | 9 | 169 | 12.9 | 19.3 | 0.00 | 0.00 | 0.00 | 73 | 1011.2 |
| 20260504013020 | 8 | 153 | 12.9 | 16.1 | 0.00 | 0.00 | 0.00 | 73 | 1011.2 |
| 20260504011519 | 8 | 171 | 9.7 | 14.5 | 0.00 | 0.00 | 0.00 | 74 | 1011.3 |
| 20260504010019 | 9 | 171 | 11.3 | 16.1 | 0.00 | 0.00 | 0.00 | 72 | 1011.3 |
| 20260504004512 | 10 | 177 | 11.3 | 16.1 | 0.00 | 0.00 | 0.00 | 70 | 1011.5 |
| 20260504003031 | 10 | 189 | 6.4 | 9.7 | 0.00 | 0.00 | 0.00 | 71 | 1011.6 |
| 20260504001524 | 10 | 190 | 8.0 | 11.3 | 0.00 | 0.00 | 0.00 | 69 | 1011.6 |
| 20260504000024 | 10 | 197 | 8.0 | 12.9 | 0.00 | 0.00 | 0.00 | 69 | 1011.6 |
| 20260503234535 | 10 | 221 | 11.3 | 17.7 | 0.00 | 0.00 | 0.00 | 67 | 1011.8 |
| 20260503233018 | 10 | 207 | 12.9 | 22.5 | 0.00 | 0.00 | 0.00 | 65 | 1012.0 |
| 20260503231516 | 11 | 236 | 19.3 | 32.2 | 0.00 | 0.00 | 0.00 | 64 | 1012.3 |
| 20260503230026 | 11 | 225 | 24.1 | 35.4 | 0.00 | 0.00 | 0.00 | 63 | 1012.4 |
| 20260503224526 | 11 | 227 | 32.2 | 41.8 | 0.00 | 0.00 | 0.00 | 62 | 1012.5 |
| 20260503223025 | 11 | 240 | 33.8 | 49.9 | 0.00 | 0.00 | 0.00 | 60 | 1012.5 |
| 20260503221523 | 12 | 253 | 35.4 | 51.5 | 0.00 | 0.00 | 0.00 | 60 | 1012.4 |
| 20260503220024 | 13 | 246 | 32.2 | 49.9 | 0.00 | 0.00 | 0.00 | 58 | 1012.2 |
| 20260503214518 | 13 | 246 | 43.5 | 57.9 | 0.00 | 0.00 | 0.00 | 52 | 1012.1 |
| 20260503213018 | 15 | 217 | 33.8 | 46.7 | 0.00 | 0.00 | 0.00 | 40 | 1011.9 |
| 20260503211516 | 15 | 239 | 32.2 | 43.5 | 0.00 | 0.00 | 0.00 | 41 | 1012.0 |
| 20260503210028 | 15 | 238 | 30.6 | 48.3 | 0.00 | 0.00 | 0.00 | 40 | 1012.1 |
| 20260503204510 | 15 | 223 | 30.6 | 43.5 | 0.00 | 0.00 | 0.00 | 38 | 1012.2 |
| 20260503203004 | 16 | 238 | 30.6 | 46.7 | 0.00 | 0.00 | 0.00 | 39 | 1012.3 |
| 20260503201523 | 16 | 243 | 30.6 | 41.8 | 0.00 | 0.00 | 0.00 | 39 | 1012.5 |
| 20260503200020 | 16 | 222 | 37.0 | 48.3 | 0.00 | 0.00 | 0.00 | 36 | 1012.9 |
| 20260503194516 | 16 | 235 | 33.8 | 46.7 | 0.00 | 0.00 | 0.00 | 36 | 1012.9 |
| 20260503193013 | 15 | 238 | 30.6 | 38.6 | 0.00 | 0.00 | 0.00 | 37 | 1013.2 |
| 20260503191510 | 16 | 234 | 32.2 | 43.5 | 0.00 | 0.00 | 0.00 | 36 | 1013.3 |
| 20260503190009 | 15 | 230 | 35.4 | 46.7 | 0.00 | 0.00 | 0.00 | 36 | 1013.6 |
| 20260503184535 | 16 | 229 | 32.2 | 45.1 | 0.00 | 0.00 | 0.00 | 37 | 1013.7 |
| 20260503183024 | 16 | 243 | 35.4 | 41.8 | 0.00 | 0.00 | 0.00 | 39 | 1013.9 |
| 20260503181522 | 15 | 238 | 32.2 | 46.7 | 0.00 | 0.00 | 0.00 | 37 | 1014.0 |
| 20260503180024 | 15 | 225 | 33.8 | 51.5 | 0.00 | 0.00 | 0.00 | 36 | 1014.4 |
| 20260503174515 | 15 | 246 | 35.4 | 46.7 | 0.00 | 0.00 | 0.00 | 39 | 1014.4 |
| 20260503173015 | 15 | 249 | 30.6 | 45.1 | 0.00 | 0.00 | 0.00 | 42 | 1014.7 |
| 20260503171524 | 15 | 217 | 37.0 | 48.3 | 0.00 | 0.00 | 0.00 | 38 | 1014.9 |